{"data":{"norad_id":51625,"intl_designator":"2022-012D","name":"ONEWEB-0416","alt_names":[],"object_type":"PAYLOAD","status":"ACTIVE","operator":null,"country":"UK","launch_date":"2022-02-10","launch_site_code":"FRGUI","launch_vehicle":null,"mission":null,"orbit_class":"UNKNOWN","rcs_meters":null,"size_class":null,"mass_kg":null,"dimensions":null,"purposes":["comms"],"wikipedia_slug":null,"has_3d_model":false,"image_url":null,"decayed_at":null,"tle_current":{"epoch":"2026-05-25T02:44:12.687072Z","epoch_age_seconds":62441,"freshness":"FRESH","line1":"1 51625U 22012D   26145.11403573 -.00000662  00000+0 -19322-2 0  9992","line2":"2 51625  87.8847  40.8774 0001650  93.2382 266.8934 13.10370764206303","mean_motion":13.10370764,"eccentricity":0.000165,"inclination_deg":87.8847,"raan_deg":40.8774,"arg_perigee_deg":93.2382,"mean_anomaly_deg":266.8934,"bstar":-0.0019322,"rev_number":20630,"period_min":109.89256167501,"perigee_km":1220.4711114879,"apogee_km":1222.9790659772,"semimajor_km":7599.8620887325,"source":"CELESTRAK","updated_at":"2026-05-25T13:38:22.576235Z"}}}